Weather History for KTAD - April, 2013

Change the Weather History Date:

Monday, April 22, 2013

  Actual Average Record
Temperature  
Mean Temperature 49 °F 52 °F  
Max Temperature 72 °F 67 °F 90 °F (1965)
Min Temperature 25 °F 36 °F 24 °F (1984)
Degree Days  
Heating Degree Days 16 14  
Month to date heating degree days 445 364  
Since 1 July heating degree days 5109 5193  
Cooling Degree Days 0 0  
Month to date cooling degree days 0 0  
Year to date cooling degree days 0 0  
Moisture  
Dew Point 26 °F    
Average Humidity 54    
Maximum Humidity 92    
Minimum Humidity 15    
Precipitation  
Precipitation T in 0.05 in 1.23 in (2004)
Month to date precipitation 0.70 0.80  
Year to date precipitation 1.24 2.58  
Sea Level Pressure  
Sea Level Pressure 29.99 in    
Wind  
Wind Speed 12 mph (NNE)    
Max Wind Speed 38 mph    
Max Gust Speed 47 mph    
Visibility 7 miles    
Events Rain , Snow    
T = Trace of Precipitation, MM = Missing Value Source: NWS Daily Summary

Daily Weather History Graph

Daily Weather History Graph

Search for Another Location

Airport or City:

Trip Planner

Search our weather history database for the weather conditions in past years. The results will help you decide how hot, cold, wet, or windy it might be!

Date:

Astronomy

Apr. 22, 2013 Rise Set
Actual Time 6:13 AM MDT 7:39 PM MDT
Civil Twilight 5:45 AM MDT 8:06 PM MDT
Nautical Twilight 5:12 AM MDT 8:39 PM MDT
Astronomical Twilight 4:38 AM MDT 9:13 PM MDT
Moon 4:34 PM MDT (4/22) 4:04 AM MDT (4/22)
Length of Visible Light 14h 20m
Length of Day
13h 25m
Waxing Gibbous, 88% of the Moon is Illuminated
Apr 22
Waxing Gibbous
Apr 25
Full
May 2
Last Quarter
May 9
New
May 17
First Quarter

Hourly Weather History & Observations

Time (MDT) Temp. Windchill Dew Point Humidity Pressure Visibility Wind Dir Wind Speed Gust Speed Precip Events Conditions
12:54 AM 44.1 °F 39.5 °F 28.9 °F 55% 29.87 in 10.0 mi West 8.1 mph - N/A   Clear
1:54 AM 41.0 °F 34.7 °F 28.0 °F 60% 29.86 in 10.0 mi West 10.4 mph - N/A   Clear
2:54 AM 39.0 °F 32.3 °F 26.1 °F 60% 29.84 in 10.0 mi WSW 10.4 mph - N/A   Clear
3:54 AM 37.0 °F 28.9 °F 25.0 °F 62% 29.82 in 10.0 mi West 12.7 mph - N/A   Clear
4:54 AM 37.0 °F 28.9 °F 23.0 °F 57% 29.84 in 10.0 mi West 12.7 mph - N/A   Clear
5:54 AM 37.9 °F 30.0 °F 21.9 °F 53% 29.81 in 10.0 mi WSW 12.7 mph - N/A   Clear
6:54 AM 36.0 °F 31.1 °F 24.1 °F 62% 29.84 in 10.0 mi WNW 5.8 mph - N/A   Clear
7:54 AM 45.0 °F 41.2 °F 24.1 °F 44% 29.83 in 10.0 mi West 6.9 mph - N/A   Clear
8:54 AM 53.1 °F - 25.0 °F 34% 29.81 in 10.0 mi Calm Calm - N/A   Clear
9:54 AM 61.0 °F - 21.9 °F 22% 29.78 in 10.0 mi NE 4.6 mph - N/A   Clear
10:54 AM 64.0 °F - 21.9 °F 20% 29.78 in 10.0 mi Variable 4.6 mph - N/A   Clear
11:54 AM 66.9 °F - 21.9 °F 18% 29.75 in 10.0 mi SE 5.8 mph - N/A   Partly Cloudy
12:54 PM 69.1 °F - 21.9 °F 17% 29.70 in 10.0 mi Variable 5.8 mph - N/A   Clear
1:54 PM 70.0 °F - 19.9 °F 15% 29.69 in 10.0 mi North 3.5 mph - N/A   Partly Cloudy
2:54 PM 68.0 °F - 24.1 °F 19% 29.69 in 10.0 mi NE 15.0 mph - N/A   Clear
3:54 PM 54.0 °F - 33.1 °F 45% 29.77 in 3.0 mi NNE 34.5 mph 46.0 mph N/A   Haze
4:01 PM 51.8 °F - 33.8 °F 50% 29.87 in 2.5 mi NNE 35.7 mph 43.7 mph N/A   Haze
4:09 PM 51.8 °F - 35.6 °F 54% 29.88 in 4.0 mi NNE 33.4 mph 47.2 mph N/A   Haze
4:39 PM 51.8 °F - 35.6 °F 54% 29.95 in 8.0 mi North 25.3 mph 38.0 mph N/A   Mostly Cloudy
4:54 PM 50.0 °F - 36.0 °F 59% 29.92 in 10.0 mi North 23.0 mph 31.1 mph N/A   Mostly Cloudy
5:54 PM 41.0 °F 31.4 °F 32.0 °F 70% 30.03 in 10.0 mi NE 21.9 mph 32.2 mph N/A   Overcast
6:29 PM 35.6 °F 24.0 °F 28.4 °F 75% 30.09 in 10.0 mi NNE 23.0 mph 32.2 mph N/A   Overcast
6:54 PM 34.0 °F 22.7 °F 27.0 °F 75% 30.12 in 7.0 mi NNE 19.6 mph 26.5 mph N/A   Overcast
7:13 PM 32.0 °F 21.2 °F 26.6 °F 80% 30.14 in 4.0 mi NNE 16.1 mph - 0.00 in Rain Light Freezing Rain
7:22 PM 30.2 °F 18.5 °F 26.6 °F 86% 30.14 in 4.0 mi NNE 17.3 mph - 0.00 in   Overcast
7:30 PM 30.2 °F 18.1 °F 26.6 °F 86% 30.14 in 3.0 mi NNE 18.4 mph - 0.00 in Rain Light Freezing Rain
7:51 PM 30.2 °F 18.9 °F 26.6 °F 86% 30.16 in 3.0 mi NNE 16.1 mph - 0.00 in Snow Light Snow
7:54 PM 30.0 °F 18.7 °F 27.0 °F 88% 30.14 in 3.0 mi NE 16.1 mph - 0.00 in Snow Light Snow
7:58 PM 30.2 °F 18.1 °F 26.6 °F 86% 30.16 in 2.5 mi NNE 18.4 mph - 0.00 in   Overcast
8:14 PM 28.4 °F 16.2 °F 26.6 °F 93% 30.17 in 2.0 mi NNE 17.3 mph 24.2 mph 0.00 in Snow Light Snow
8:23 PM 28.4 °F 16.2 °F 26.6 °F 93% 30.17 in 2.5 mi NE 17.3 mph - 0.00 in Snow Light Snow
8:50 PM 28.4 °F 16.6 °F 26.6 °F 93% 30.18 in 3.0 mi NE 16.1 mph 24.2 mph 0.00 in Rain Light Freezing Rain
8:54 PM 28.0 °F 15.7 °F 26.1 °F 92% 30.14 in 3.0 mi NE 17.3 mph - 0.00 in Rain Light Freezing Rain
9:51 PM 26.6 °F 15.2 °F 24.8 °F 93% 30.22 in 9.0 mi NNE 13.8 mph - 0.00 in   Overcast
9:54 PM 27.0 °F 17.3 °F 24.1 °F 89% 30.17 in 8.0 mi NNE 10.4 mph 19.6 mph 0.00 in   Overcast
10:15 PM 26.6 °F 16.2 °F 24.8 °F 93% 30.22 in 4.0 mi NNE 11.5 mph - 0.00 in Rain Light Freezing Rain
10:22 PM 26.6 °F 15.7 °F 24.8 °F 93% 30.22 in 3.0 mi NE 12.7 mph - 0.00 in Snow Light Snow
10:40 PM 26.6 °F 15.7 °F 24.8 °F 93% 30.22 in 3.0 mi NNE 12.7 mph - 0.00 in Rain Light Freezing Rain
10:54 PM 26.1 °F 15.0 °F 24.1 °F 92% 30.14 in 3.0 mi NNE 12.7 mph - 0.00 in Rain Light Freezing Rain
11:54 PM 25.0 °F 12.2 °F 21.9 °F 88% 30.14 in 8.0 mi North 16.1 mph - 0.00 in   Overcast